Wind_Speed
43 51 57 52 49 51 51 50 56 57 50 49 49 46 49 45 44 47 47 46 43 45 49 51 51 52 52 53 56 57 57 54 54 59 55 54 51 42 41 45 54 54 56 60
56 52 50 55 52 52 49 49 55 53 53 52 49 48 47 47 48 46 44 46 45 46 50 54 55 56 58 58 56 56 58 61 65 63 67 58 50 62 60 59 58 54 58 60
52 53 57 51 53 51 48 48 55 55 56 50 46 41 43 41 49 51 53 48 48 49 48 49 50 54 58 60 58 66 60 68 67 66 70 68 66 65 70 66 70 71 72 77
55 51 55 54 49 50 47 46 52 56 51 48 49 49 52 49 48 54 51 52 55 53 55 61 67 70 68 65 67 67 81 77 70 69 72 75 78 77 78 76 75 80 82 79
51 53 51 51 52 49 50 49 53 53 56 58 56 55 55 53 47 46 55 59 60 65 68 71 71 69 69 76 77 80 85 79 75 81 75 76 82 83 84 82 82 85 90 80
54 50 50 51 51 51 53 53 54 56 58 57 56 59 54 52 51 51 56 60 62 65 65 68 72 74 77 79 80 86 82 81 80 81 79 86 93 92 86 91 95 95 101 88
55 51 54 51 53 57 56 57 57 58 60 57 57 55 55 56 60 67 63 62 62 61 70 75 74 83 85 83 85 86 84 81 83 82 90 91 91 92 104 104 102 100 97 91
58 58 58 56 57 55 55 58 57 58 61 62 61 60 67 68 70 69 68 71 77 83 83 83 84 92 89 89 93 85 85 87 86 90 95 102 111 109 111 105 104 100 96 90
59 60 55 55 58 58 59 60 64 62 64 64 65 69 71 71 69 73 74 78 80 81 83 86 92 95 97 93 91 94 93 93 95 98 103 121 125 121 113 106 100 97 97 94
55 57 55 55 59 60 63 63 66 69 68 69 68 75 78 73 71 75 80 85 87 87 91 95 100 100 96 100 99 102 101 106 110 115 133 120 108 108 105 105 106 105 108 107
65 67 63 63 65 67 68 70 71 73 71 72 72 81 82 80 79 85 88 88 88 91 96 99 99 96 106 111 106 113 119 123 126 129 110 109 110 113 115 116 118 118 116 118
70 69 65 65 67 67 68 70 73 75 75 73 76 75 83 86 89 92 97 99 98 99 101 102 105 111 114 116 122 129 126 124 113 112 115 115 120 122 123 126 127 122 123 122
73 69 71 69 69 70 69 73 74 76 77 78 80 85 90 90 94 99 98 99 103 106 108 113 116 121 125 132 137 136 126 115 116 116 120 123 124 128 131 128 125 122 118 116
75 76 76 78 79 76 76 82 80 80 79 82 83 84 98 94 93 99 100 104 106 109 116 121 125 131 137 143 135 127 120 119 122 123 123 127 130 126 119 115 110 106 102 99
81 83 85 84 85 80 84 83 84 84 86 87 87 88 95 99 100 104 108 110 113 119 121 126 132 137 143 132 129 122 123 125 126 128 131 124 118 111 105 101 96 91 89 86
93 89 89 86 87 89 90 89 90 90 91 92 95 96 102 102 104 112 114 117 120 123 128 133 139 143 141 132 125 124 127 130 132 130 123 113 106 100 94 92 89 84 79 73
97 94 92 92 93 97 95 93 95 96 98 100 102 102 104 108 112 117 119 123 126 131 137 140 141 147 135 129 130 131 134 134 126 117 110 102 96 91 86 83 78 72 70 66
103 98 97 98 98 96 97 94 95 102 101 103 106 108 113 115 117 123 129 132 135 140 142 149 147 144 133 134 137 138 133 122 113 106 99 94 86 78 76 72 69 66 62 60
102 105 106 105 104 102 98 97 96 99 104 107 112 116 119 120 125 129 135 137 141 147 148 148 155 138 138 139 140 132 119 111 104 97 92 88 79 71 68 66 61 58 56 54
108 109 109 110 108 105 103 103 104 110 110 114 119 122 127 127 129 135 140 144 149 151 152 156 144 140 140 144 134 120 109 98 91 84 79 76 76 69 63 61 57 53 51 49
114 112 114 115 116 112 109 107 112 114 116 123 127 129 130 133 135 137 143 147 151 152 161 148 142 144 146 136 120 108 94 85 80 74 70 67 64 60 58 56 55 49 45 45
117 116 115 118 117 115 117 114 120 119 125 127 127 131 134 138 141 145 146 150 153 161 154 145 146 146 135 119 106 94 86 79 74 68 66 61 56 54 52 51 51 46 42 40
122 119 120 121 123 120 120 119 120 124 129 131 134 137 140 143 146 149 150 155 159 157 146 146 148 132 121 108 95 84 80 72 68 64 60 57 54 50 47 46 45 42 38 37
123 125 125 127 129 126 125 124 127 132 136 137 140 143 146 146 152 155 156 158 162 148 148 146 129 118 108 97 87 81 74 68 63 58 55 53 49 45 43 42 40 38 36 36
131 129 130 127 126 128 129 132 134 138 140 144 145 148 151 151 157 159 161 164 150 147 146 132 119 107 96 87 82 74 68 62 58 54 52 48 45 42 39 38 37 34 33 33
131 132 131 129 130 130 133 137 141 143 146 147 149 152 155 158 161 161 166 152 146 145 128 117 105 95 85 79 75 68 63 57 55 52 49 45 40 37 35 34 33 32 30 29
Wind_Direction
267 281 274 279 285 282 284 272 272 275 283 278 274 271 273 283 289 277 283 283 284 283 283 283 283 283 286 287 288 289 287 295 300 294 298 298 289 295 306 301 289 288 290 285
273 274 275 288 281 283 278 270 271 276 279 280 274 276 277 286 283 281 277 278 279 279 280 282 280 284 288 288 285 283 285 292 297 296 303 307 297 304 304 308 312 301 296 298
271 276 283 281 281 280 274 271 268 271 274 275 275 274 279 285 281 280 279 277 278 279 278 278 282 286 291 286 283 290 294 296 300 296 300 304 305 300 298 295 298 303 305 305
277 274 278 282 277 276 276 273 269 266 270 267 270 273 282 277 277 277 280 283 284 280 283 286 289 289 292 294 297 299 303 304 299 297 294 296 304 302 299 292 293 299 300 300
277 278 276 275 272 277 271 272 268 268 269 274 276 277 273 275 271 280 293 290 288 286 288 289 293 303 302 304 301 301 301 297 299 299 295 291 297 297 292 292 288 290 295 292
275 270 271 271 272 269 267 266 269 269 268 272 268 274 272 275 279 282 284 288 289 290 295 298 299 302 306 305 302 301 299 293 293 294 291 291 292 294 293 290 290 292 293 291
265 269 269 269 266 267 272 273 273 273 270 267 270 274 274 280 284 286 287 289 289 290 296 302 303 306 304 302 302 297 295 295 291 286 286 295 292 290 293 293 292 289 286 285
271 269 267 270 270 271 271 270 273 271 271 272 275 277 280 283 283 284 288 292 292 295 297 299 303 305 302 295 300 296 293 294 288 287 287 291 295 293 294 291 289 284 281 280
267 267 268 268 267 267 268 273 271 273 273 276 279 277 276 278 280 284 290 292 293 295 298 302 303 297 300 295 299 303 300 292 292 288 287 293 293 293 293 291 286 286 284 284
262 263 262 262 264 267 269 270 272 273 274 275 278 279 278 280 284 289 289 290 294 297 303 301 300 300 298 302 305 303 301 298 295 293 295 295 293 294 293 291 289 288 286 284
261 261 259 263 266 267 272 274 273 275 277 277 277 280 283 281 284 287 292 297 297 300 298 297 300 299 304 304 301 300 299 297 296 295 297 301 299 298 296 292 290 288 286 285
265 266 264 265 269 271 272 275 278 278 277 277 278 282 285 292 293 292 292 295 301 299 299 300 300 302 303 303 303 302 302 303 304 306 304 301 297 294 293 292 289 288 285 281
270 267 267 269 271 269 270 276 278 278 280 283 283 287 287 289 292 293 295 301 299 299 300 302 301 304 305 305 307 309 311 309 306 303 299 297 295 294 292 290 287 284 281 278
271 270 273 274 274 273 274 276 279 282 283 283 288 287 290 293 293 295 300 299 301 299 301 303 304 306 307 309 311 311 309 306 302 299 298 297 296 294 292 287 285 283 282 279
273 275 276 277 277 277 279 275 277 278 284 288 284 289 288 292 294 298 300 302 300 303 305 305 306 307 311 311 311 308 305 303 302 300 299 300 297 294 291 288 287 284 281 280
271 273 274 276 275 275 280 281 281 284 286 286 286 289 290 294 298 298 299 299 302 304 305 307 310 311 312 311 307 306 304 303 302 303 302 300 296 294 292 290 287 284 281 277
269 273 275 276 277 280 281 283 282 284 286 286 290 290 292 293 296 298 298 300 303 304 306 309 312 313 311 309 307 305 305 305 305 304 301 298 297 294 292 289 286 285 282 280
272 273 275 276 276 278 279 284 284 282 287 288 289 292 293 296 298 299 300 303 304 306 309 311 312 312 309 307 305 306 307 307 306 304 301 298 296 294 291 289 288 286 283 280
269 271 274 276 278 280 282 282 283 284 286 290 292 293 295 297 298 300 302 305 307 308 311 311 311 309 307 307 308 309 308 308 305 302 301 299 298 298 294 291 288 285 282 278
271 273 274 275 277 280 281 283 284 285 289 290 291 293 295 298 301 301 303 305 307 310 310 312 309 307 308 309 309 309 308 306 302 301 299 298 297 298 294 291 288 283 280 275
268 272 273 275 278 280 282 283 286 287 288 288 291 293 295 297 299 302 303 306 307 309 310 309 308 308 309 309 309 309 307 305 303 302 301 299 298 295 293 290 287 284 277 274
266 270 273 275 278 281 283 286 286 287 286 289 292 293 295 296 299 301 304 306 307 308 309 307 308 309 308 309 309 308 308 307 305 304 302 301 297 294 291 289 287 285 280 273
266 269 273 276 278 281 281 283 286 288 289 291 292 294 296 297 300 302 304 305 307 308 307 307 309 308 308 308 308 308 307 306 305 304 302 299 297 296 295 290 286 284 279 274
267 270 272 274 276 279 283 284 286 286 288 290 292 294 296 299 301 302 304 305 306 306 307 309 308 307 307 307 308 308 307 307 306 305 303 301 299 296 293 291 287 282 278 274
266 269 271 275 277 279 282 283 284 285 287 289 292 294 296 298 299 301 303 304 305 306 307 307 306 306 305 306 306 306 306 306 305 305 304 301 299 295 294 291 288 284 279 272
266 268 271 273 276 279 281 281 284 286 288 291 293 294 297 298 299 301 302 304 304 305 305 305 304 303 303 303 303 305 305 305 304 303 302 301 299 296 294 290 286 283 280 275
Height
10734 10737 10734 10736 10739 10737 10736 10735 10731 10731 10734 10735 10729 10730 10724 10726 10728 10726 10724 10723 10723 10722 10719 10718 10716 10714 10712 10710 10706 10702 10698 10696 10694 10692 10689 10686 10682 10679 10676 10674 10671 10667 10664 10661
10722 10727 10722 10727 10728 10726 10725 10725 10722 10722 10723 10725 10721 10720 10717 10715 10715 10716 10716 10713 10713 10712 10709 10707 10706 10704 10701 10698 10695 10690 10687 10683 10679 10676 10673 10669 10668 10665 10662 10658 10656 10654 10652 10646
10711 10713 10712 10714 10715 10714 10714 10715 10713 10714 10711 10714 10713 10713 10710 10712 10704 10703 10704 10704 10702 10700 10698 10697 10696 10694 10691 10687 10682 10679 10674 10670 10663 10659 10656 10651 10649 10647 10644 10640 10637 10634 10633 10631
10702 10700 10698 10702 10703 10702 10704 10703 10704 10703 10703 10702 10705 10702 10701 10700 10700 10693 10692 10692 10690 10689 10688 10686 10683 10681 10677 10672 10666 10661 10656 10652 10647 10643 10639 10634 10630 10627 10624 10621 10618 10613 10611 10609
10689 10688 10689 10689 10689 10692 10693 10694 10693 10694 10694 10693 10691 10691 10685 10688 10692 10688 10680 10678 10676 10674 10672 10670 10668 10665 10662 10655 10650 10645 10638 10633 10629 10624 10619 10614 10610 10607 10603 10599 10596 10594 10590 10588
10674 10676 10677 10677 10678 10681 10682 10683 10683 10684 10683 10686 10679 10676 10674 10674 10677 10679 10674 10668 10664 10660 10658 10654 10651 10647 10644 10639 10630 10625 10620 10614 10609 10605 10599 10593 10587 10582 10578 10574 10569 10564 10562 10562
10658 10666 10663 10667 10667 10667 10670 10670 10672 10675 10673 10672 10669 10667 10660 10664 10661 10660 10659 10655 10652 10647 10643 10636 10632 10630 10625 10619 10613 10606 10598 10591 10586 10581 10575 10568 10564 10558 10553 10548 10542 10538 10535 10532
10649 10651 10652 10654 10652 10656 10659 10658 10661 10661 10661 10660 10661 10656 10646 10650 10648 10642 10642 10639 10635 10630 10626 10619 10614 10611 10603 10596 10589 10581 10573 10565 10558 10553 10547 10541 10536 10529 10522 10515 10511 10508 10505 10501
10636 10636 10640 10642 10641 10646 10648 10648 10644 10649 10649 10648 10644 10638 10635 10636 10635 10631 10627 10622 10619 10613 10609 10602 10596 10589 10580 10573 10564 10554 10546 10539 10531 10523 10516 10508 10499 10491 10482 10477 10475 10470 10468 10465
10624 10622 10628 10631 10629 10631 10631 10634 10633 10632 10635 10635 10634 10618 10611 10625 10622 10615 10611 10604 10599 10595 10588 10581 10573 10564 10557 10549 10538 10530 10521 10511 10503 10492 10480 10466 10454 10446 10441 10435 10432 10426 10424 10422
10610 10610 10619 10618 10617 10616 10618 10617 10618 10616 10620 10618 10618 10600 10596 10599 10603 10594 10588 10585 10580 10575 10566 10558 10551 10541 10532 10521 10511 10504 10493 10479 10468 10454 10435 10422 10410 10401 10394 10390 10386 10382 10380 10376
10589 10595 10601 10602 10602 10603 10603 10602 10599 10599 10599 10603 10600 10595 10581 10577 10574 10570 10565 10565 10560 10549 10539 10531 10521 10513 10504 10492 10480 10469 10454 10435 10415 10404 10390 10384 10372 10362 10356 10346 10336 10335 10330 10326
10577 10580 10578 10585 10589 10587 10587 10586 10584 10581 10583 10584 10582 10576 10561 10562 10557 10547 10545 10540 10531 10522 10511 10503 10493 10478 10467 10455 10439 10419 10403 10391 10378 10370 10357 10346 10336 10322 10312 10304 10293 10281 10277 10274
10559 10561 10565 10567 10563 10573 10574 10566 10565 10561 10567 10564 10566 10560 10529 10539 10537 10523 10522 10515 10505 10496 10485 10474 10459 10448 10434 10417 10399 10378 10368 10360 10345 10332 10322 10306 10292 10277 10264 10254 10247 10238 10234 10232
10542 10545 10544 10547 10546 10552 10550 10552 10545 10544 10544 10539 10536 10539 10521 10516 10512 10502 10493 10487 10477 10469 10457 10445 10432 10418 10399 10379 10365 10352 10338 10320 10309 10296 10278 10264 10245 10233 10223 10212 10205 10202 10199 10195
10524 10527 10527 10530 10531 10530 10530 10532 10530 10527 10523 10519 10513 10516 10500 10494 10488 10476 10468 10461 10451 10442 10430 10417 10401 10383 10366 10349 10334 10320 10305 10290 10274 10255 10237 10221 10207 10197 10189 10179 10173 10169 10167 10168
10507 10509 10509 10509 10509 10507 10513 10512 10506 10501 10498 10493 10488 10485 10479 10475 10468 10452 10442 10431 10425 10414 10400 10387 10369 10351 10333 10316 10301 10290 10275 10256 10238 10218 10201 10187 10177 10168 10160 10153 10146 10143 10139 10140
10487 10489 10488 10486 10487 10489 10493 10495 10488 10477 10476 10470 10462 10458 10452 10448 10440 10423 10412 10404 10395 10379 10366 10353 10334 10320 10304 10288 10272 10258 10240 10222 10203 10186 10171 10158 10151 10142 10134 10128 10122 10119 10117 10117
10468 10467 10468 10465 10465 10468 10474 10474 10466 10458 10452 10448 10438 10430 10426 10421 10416 10399 10380 10374 10360 10348 10335 10320 10305 10287 10273 10256 10239 10222 10206 10190 10173 10158 10145 10131 10123 10118 10110 10105 10102 10098 10097 10097
10448 10446 10445 10447 10445 10447 10449 10449 10446 10435 10431 10425 10417 10407 10400 10393 10391 10377 10354 10343 10331 10317 10301 10291 10272 10256 10239 10224 10207 10193 10178 10164 10150 10138 10124 10112 10101 10098 10091 10085 10083 10081 10080 10079
10425 10427 10425 10422 10422 10425 10424 10427 10417 10413 10409 10402 10393 10384 10376 10365 10358 10352 10334 10319 10305 10289 10276 10259 10244 10227 10209 10195 10180 10166 10152 10139 10126 10115 10103 10094 10086 10079 10073 10068 10064 10064 10065 10064
10404 10402 10405 10402 10404 10405 10397 10403 10393 10392 10382 10376 10370 10362 10354 10344 10333 10323 10311 10294 10279 10264 10246 10230 10215 10198 10182 10167 10155 10141 10127 10117 10104 10095 10085 10077 10070 10063 10057 10053 10050 10050 10050 10050
10385 10385 10385 10385 10382 10383 10378 10376 10372 10363 10356 10350 10343 10334 10327 10317 10306 10293 10283 10269 10253 10238 10221 10204 10189 10172 10156 10142 10130 10121 10109 10099 10087 10078 10070 10062 10055 10049 10045 10041 10038 10037 10036 10035
10368 10367 10366 10363 10360 10362 10358 10355 10347 10341 10328 10323 10318 10309 10299 10293 10279 10265 10254 10242 10228 10211 10195 10178 10163 10149 10134 10120 10108 10099 10091 10081 10072 10063 10055 10049 10043 10037 10032 10029 10026 10025 10024 10023
10350 10351 10342 10342 10342 10338 10337 10330 10324 10316 10309 10302 10293 10285 10276 10266 10251 10238 10227 10216 10200 10186 10169 10153 10140 10128 10115 10103 10092 10085 10076 10067 10058 10051 10043 10037 10031 10026 10022 10018 10015 10014 10014 10013
10330 10326 10325 10324 10320 10320 10313 10306 10296 10291 10286 10277 10267 10258 10247 10236 10223 10212 10200 10188 10175 10160 10144 10131 10119 10110 10099 10088 10078 10071 10061 10054 10045 10038 10032 10026 10020 10016 10012 10009 10006 10005 10004 10003